Regional Weather Roundup
Issued by NWS

Home | Current Version | Previous Version | Graphics & Text | Print | Product List | Glossary On
Versions: 1 2 3 4 5 6 7 8 9 10 11 12 13 14 15 16 17 18 19 20 21 22 23 24 25 26 27 28 29 30 31 32 33 34 35 36 37 38 39 40 41 42 43 44 45 46 47 48 49 50
000
ASUS43 KLOT 190908
RWRIL

ILLINOIS REGIONAL WEATHER ROUNDUP
NATIONAL WEATHER SERVICE CHICAGO/ROMEOVILLE IL
400 AM CDT SAT AUG 19 2017

NOTE: "FAIR" INDICATES FEW OR NO CLOUDS BELOW 12,000 FEET WITH NO
SIGNIFICANT WEATHER AND/OR OBSTRUCTIONS TO VISIBILITY.

* THESE STATIONS ARE NOT UNDER NWS QUALITY CONTROL. THEY ALSO MAY NOT
  REPORT WEATHER SUCH AS PRECIPITATION OR FOG.

ILZ001-002-007-009-015-016-024-191000-
NORTHWEST ILLINOIS

CITY           SKY/WX    TMP DP  RH WIND       PRES   REMARKS
MOLINE         MOCLDY    66  62  87 CALM      29.92R
STERLING*      CLEAR     60  59  96 N3        29.92S
SAVANNA*       PTCLDY    60  59  97 CALM      29.92S
$$

ILZ003-004-008-010-011-017-018-191000-
NORTH CENTRAL ILLINOIS

CITY           SKY/WX    TMP DP  RH WIND       PRES   REMARKS
ROCKFORD       PTCLDY    61  59  93 N6        29.93S
FREEPORT*      PTCLDY    55  55  99 CALM      29.94S FOG
ROCHELLE*      CLEAR     59  58  97 CALM      29.93R
DE KALB*       CLEAR     60  59  96 N5        29.92S
PERU*          PTCLDY    63  60  91 E3        29.92R
$$

ILZ005-006-012>014-019>023-191000-
NORTHEAST ILLINOIS

CITY           SKY/WX    TMP DP  RH WIND       PRES   REMARKS
CHICAGO-OHARE  PTCLDY    66  59  78 N7        29.90S
CHICAGO-MIDWAY PTCLDY    68  60  75 N7        29.90S
AURORA         CLEAR     61  59  93 CALM      29.92S
LANSING*       MOCLDY    69  57  66 N5        29.91R
JOLIET*        CLEAR     66  62  86 CALM      29.91S
WAUKEGAN       CLEAR     62  60  93 NW5       29.89F
DUPAGE AIRPORT CLEAR     62  60  93 CALM      29.91S
WHEELING       CLEAR     63  62  97 NW3       29.92R
MORRIS*        CLEAR     62  60  94 CALM      29.90S
ROMEOVILLE*    CLEAR     63  58  81 N6        29.91S
NORTHERLY ISL    N/A     69  60  73 NW7         N/A
$$

LMZ740>746-191000-
SOUTHERN LAKE MICHIGAN

STATION/POSITION SKY/WX   TEMP    WIND        PRES    VSBY  WAVE
                          AIR SEA DIR/SP/G                  HT/PER
                          (F)     (DEG/KT/KT) (MB)    (MI)  (FT/S)
SOUTHERN BUOY              70 71  350/ 14/ 16 1011.6          2/ 3
WILMETTE HARBOR            69 73  320/ 12/ 14   N/A           2/ 3
HARRISON CRIB              69     330/ 11/ 12   N/A
CALUMET HARBOR             69     310/  4/  5 1012.2R
BURNS HARBOR               71     340/ 10/ 13 1012.9F
MICHIGAN CITY              70     320/ 13/ 15   N/A
MICHIGAN CITY 6N           71 74  340/ 12/ 16   N/A           3/ 4
ST. JOSEPH                 71 73   10/ 14/ 17 1011.9          2/ 3
$$

ILZ025>027-034>036-040-047-049-050-058-095>099-191000-
WEST-CENTRAL ILLINOIS

CITY           SKY/WX    TMP DP  RH WIND       PRES   REMARKS
QUINCY         PTCLDY    68  65  90 W3        29.91R
GALESBURG*     PTCLDY    64  60  88 NE5       29.93R
MACOMB*        PTCLDY    64  64  99 NE5       29.92F
JACKSONVILLE*  PTCLDY    67  65  92 SW5       29.90S
PITTSFIELD*    PTCLDY    71  69  92 CALM      29.91S
$$

ILZ028>032-037-038-041>044-048-051>054-059>061-191000-
CENTRAL ILLINOIS

CITY           SKY/WX    TMP DP  RH WIND       PRES   REMARKS
PONTIAC        CLEAR     64  63  98 CALM      29.92S
BLOOMINGTON    PTCLDY    63  61  93 NE5       29.93R
DECATUR        CLEAR     70  64  81 W7        29.91R
PEORIA         CLOUDY    67  64  90 NE6       29.91R
LACON*         CLOUDY    64  63  96 CALM      29.91R
LINCOLN*       CLEAR     64  64 100 CALM      29.90F FOG
SPRINGFIELD    CLEAR     67  65  93 N6        29.91R
TAYLORVILLE    PTCLDY    65  64  98 S5        29.91S
$$

ILZ033-039-045-046-055>057-062-063-191000-
EAST-CENTRAL ILLINOIS

CITY           SKY/WX    TMP DP  RH WIND       PRES   REMARKS
CHAMPAIGN      CLEAR     63  61  93 CALM      29.91R
RANTOUL*       PTCLDY    68  67  94 NW6       29.92R
MATTOON        PTCLDY    71  67  87 SW7       29.90R
PARIS*         MOCLDY    64  63  97 CALM      29.92S
$$

ILZ079-100>102-191000-
SOUTHWEST ILLINOIS

CITY           SKY/WX    TMP DP  RH WIND       PRES   REMARKS
ALTON          CLEAR     68  67  97 CALM      29.91S
BELLEVILLE     CLEAR     70  67  90 S5        29.92F
CAHOKIA*       PTCLDY    71  67  87 CALM      29.91S
SPARTA*        MOCLDY    70  68  93 SW3       29.93F
$$

ILZ064>066-069>071-074>076-080>082-084>086-088>090-092>094-191000-
SOUTH-CENTRAL ILLINOIS

CITY           SKY/WX    TMP DP  RH WIND       PRES   REMARKS
CARBONDALE     PTCLDY    70  67  90 SW5       29.93S
CAIRO*         CLEAR     68  67  98 CALM      29.93S
EFFINGHAM*     CLEAR     67  67 100 SW3       29.93S
MARION         CLOUDY    73  68  83 SW5       29.94R
MT. VERNON       N/A     68  66  93 CALM      29.93S
CENTRALIA*     MOCLDY    69  69  97 CALM      29.92S
SALEM*         CLEAR     70  67  91 S3        29.92S
METROPOLIS*    CLEAR     68  67  96 CALM      29.94S
$$

ILZ067-068-072-073-078-083-087-091-191000-
SOUTHEAST ILLINOIS

CITY           SKY/WX    TMP DP  RH WIND       PRES   REMARKS
LAWRENCEVILLE  CLOUDY    70  67  90 S5        29.92S
FLORA*         MOCLDY    70  68  91 SW5       29.92F
FAIRFIELD*     CLEAR     66  66  99 CALM      29.92S
HARRISBURG*    CLOUDY    70  68  93 CALM      29.93S
ROBINSON*      CLOUDY    68  66  93 CALM      29.91F
CARMI*         CLOUDY    67  67  99 CALM      29.93R
$$

ABBREVIATIONS USED IN REMARKS
   TC - TEMPERATURE IN CELSIUS
  WCI - WIND CHILL INDEX
   HX - HEAT INDEX
  VSB - VISIBILITY
$$





USA.gov is the U.S. government's official web portal to all federal, state and local government web resources and services.